User: anonymous   Login
Location: Cowley
(49.5667°N, 114.0667°W)
Time: 08:28:51
(UTC+00:00)
Language:

Hubble Space Telescope - Orbit

View from above orbital plane
View from above orbital plane
View from above satellite
View from above satellite

Ground track
Ground track

The orbit data is extracted from the following two-line orbital elements,

1 20580U 90037B   22028.67810840  .00001239  00000-0  63480-4 0  9992
2 20580  28.4714  14.5276 0002434 333.6318 190.4901 15.09975569545068
Epoch (UTC): 28 January 2022 16:16:28
Eccentricity: 0.0002434
inclination: 28.4714°
perigee height: 534 km
apogee height: 538 km
right ascension of ascending node: 14.5276°
argument of perigee: 333.6318°
revolutions per day: 15.09975569
mean anomaly at epoch: 190.4901°
orbit number at epoch: 54506

The dashed part of the orbit path shows where the satellite is in the earth's shadow,  

DLR